Regional Weather Roundup
Issued by NWS

Home | Current Version | Previous Version | Text Only | Print | Product List | Glossary Off
Versions: 1 2 3 4 5 6 7 8 9 10 11 12 13 14 15 16 17 18 19 20 21 22 23 24 25 26 27

000
ASUS45 KTFX 201410
RWRMT
MONTANA REGIONAL WEATHER ROUNDUP
NATIONAL WEATHER SERVICE GREAT FALLS MT
700 AM MST MON FEB 20 2017

NOTE: "FAIR" INDICATES FEW OR NO CLOUDS BELOW 12000 FEET WITH NO
SIGNIFICANT WEATHER AND/OR OBSTRUCTIONS TO VISIBILITY.

MTZ001>007-043-201500-
WEST OF THE DIVIDE

CITY           SKY/WX    TMP DP  RH WIND       PRES   REMARKS
KALISPELL      CLOUDY    29  27  92 CALM      29.69F
MISSOULA       LGT SNOW  31  31 100 SE9       29.73F FOG     WCI  23
BUTTE          CLOUDY    28  20  71 N6        29.75S WCI  22
MULLAN PASS    LGT SNOW  25  24  96 SE8       29.58F VSB 3/4 WCI  16
ANACONDA         N/A     34  27  75 SE13      29.73F WCI  25
DEER LODGE       N/A     32  27  80 CALM      29.76F
EUREKA           N/A     36  28  75 S10       29.66F WCI  28
HAMILTON         N/A     34  32  93 CALM      29.72F
LIBBY            N/A     28  28 100 CALM      29.66F
PLAINS           N/A     27  22  81 MISG      29.73F VSB 0
RONAN            N/A     29  26  88 CALM      29.74F
THOMPSON FALLS   N/A     33  30  89 S12       29.74F WCI  24
$$

MTZ008-052>055-201500-
SOUTHWEST MONTANA

CITY           SKY/WX    TMP DP  RH WIND       PRES   REMARKS
BOZEMAN        CLOUDY    30  24  78 E5        29.76F
DILLON         CLOUDY    32  23  69 VRB6      29.75F WCI  26
W YELLOWSTONE  CLOUDY    28  27  93 CALM      29.86F
ENNIS          CLOUDY    37  25  60 S23G30    29.81F WCI  26
THREE FORKS      N/A     36 -57   1 SW5       29.78S
$$

MTZ009-010-012-014-046-048-049-054-201500-
EAST SLOPES AND CENTRAL MONTANA

CITY           SKY/WX    TMP DP  RH WIND       PRES   REMARKS
CUT BANK       MOCLDY    32  21  64 W9        29.65F WCI  24
GREAT FALLS    PTCLDY    31  22  69 SW10      29.70F WCI  22
MALMSTROM AFB  MOCLDY    33  24  70 SW13      29.72S WCI  24
HELENA         CLOUDY    29  25  85 W3        29.75S
AUGUSTA          N/A     30  22  69 S14       29.67F WCI  20
BOWMANS CRNR     N/A     28  22  80 S10       29.68F WCI  18
CHOTEAU          N/A     30  21  69 SW5       29.69F
CONRAD           N/A     31  24  75 S3        29.72S
POWER          MOCLDY    33  23  68 S10       29.68F WCI  25
RAYNESFORD     MOCLDY    29  21  70 CALM      29.71F
ULM            MOCLDY    30  23  74 MISG      29.71F
$$

MTZ011-013-016-021-045-047-050-051-201500-
NORTH CENTRAL MONTANA

CITY           SKY/WX    TMP DP  RH WIND       PRES   REMARKS
HAVRE          CLEAR     30  26  85 SW12      29.71F WCI  20
LEWISTOWN      PTCLDY    27  20  75 S8        29.73F WCI  19
N BAR RANCH      N/A     30  16  55 NW8       29.76F WCI  23
CHINOOK          N/A     34  25  69 SW6       29.72S WCI  29
DENTON         MOCLDY    33  22  63 SW6       29.70F WCI  28
FORT BENTON      N/A     34  25  69 MISG      29.74S
GEYSER         MOCLDY    33  21  60 SW6       29.71F WCI  27
GRASS RANGE      N/A     32  22  67 NW6       29.71F WCI  26
JUDITH GAP     MOCLDY    31  20  62 SW16      29.76R WCI  20
ROY              N/A     31  20  62 MISG      29.72F
STANFORD       MOCLDY    31  20  62 E5        29.71F
WINIFRED         N/A     32  22  67 S7        29.73S WCI  26
$$

MTZ017>020-022>027-061-062-201500-
NORTHEAST MONTANA

CITY           SKY/WX    TMP DP  RH WIND       PRES   REMARKS
GLASGOW        CLEAR     30  28  92 W3        29.72S
JORDAN           N/A     30  26  85 W6        29.76R WCI  24
SIDNEY         PTCLDY    33  31  92 CALM      29.74R
WOLF POINT     CLOUDY    32  30  92 W5        29.74S
PLENTYWOOD       N/A     30  30 100 CALM      29.71R
POPLAR           N/A     30  28  93 CALM      29.75R
SCOBEY           N/A     28  23  81 CALM      29.70R
$$

MTZ028>42-056>058-201500-
SOUTHCENTRAL AND SOUTHEAST MONTANA

CITY           SKY/WX    TMP DP  RH WIND       PRES   REMARKS
BAKER          PTCLDY    35  30  82 W12       29.76S WCI  27
BILLINGS       PTCLDY    39  21  48 W12       29.80S WCI  32
LIVINGSTON     CLOUDY    39  23  52 SW14G28   29.75S WCI  31
MILES CITY     CLEAR     36  28  73 W12       29.78R WCI  28
BIG TIMBER     CLOUDY    36  21  55 W8        29.80S WCI  29
EKALAKA          N/A     38  30  73 W13       29.78R WCI  30
FORSYTH          N/A     37  28  70 W3        29.79S
HARLOWTON        N/A     29  20  71 W7        29.76F WCI  21
LAUREL           N/A     35  16  46 SW7       29.79F WCI  29
ROUNDUP          N/A     32  21  64 S10       29.70F WCI  24
$$

REGIONAL REPORTS...DAKOTAS

CITY           SKY/WX    TMP DP  RH WIND       PRES   REMARKS
WILLISTON      CLOUDY    32  31  96 SW10      29.73R FOG     WCI  24
MINOT          CLOUDY    34  32  92 W8        29.68R FOG     WCI  27
DICKINSON      PTCLDY    36  32  85 W10       29.70R WCI  28
BEACH            N/A    N/A N/A N/A MISG        N/A
CROSBY           N/A     32  32 100 SW7       29.71R WCI  26
TIOGA            N/A     32  32 100 W10       29.70S FOG     WCI  24
WATFORD CITY     N/A     32  32 100 SW7       29.73S WCI  26
BISMARCK       LGT RAIN  37  35  92 NW10      29.69R FOG     WCI  30
GRAND FORKS    LGT RAIN  39  36  89 SW6       29.61R VSB 1
FARGO          LGT RAIN  51  48  89 SE21G30   29.60F
BUFFALO SD       N/A     38  33  82 W14       29.70R WCI  30
RAPID CITY     CLOUDY    41  36  82 N7        29.77R
$$

REGIONAL REPORTS...WYOMING/IDAHO/WASHINGTON

CITY           SKY/WX    TMP DP  RH WIND       PRES   REMARKS
GILLETTE       CLEAR     35  31  85 W13       29.85R WCI  26
SHERIDAN       CLEAR     32  21  64 SW10      29.83F WCI  24
BUFFALO WY     CLEAR     35  21  56 SW6       29.86R WCI  30
CODY           MOCLDY    31  21  66 SE14      29.85F WCI  21
YELLOWSTONE LA   N/A     23  23 100 CALM      29.90F
IDAHO FALLS    CLOUDY    33  33 100 S3        29.90S
SALMON         CLOUDY    30  28  93 CALM      29.77S
BOISE          MOCLDY    46  35  65 SE16      29.72F
SPOKANE        CLOUDY    35  31  85 E5        29.60F
$$

REGIONAL REPORTS...ALBERTA

CITY           SKY/WX    TMP DP  RH WIND       PRES   REMARKS
EDMONTON       CLOUDY    28  27  93 NW7       29.60R WCI  21
CALGARY        FOG       21  19  93 N5        29.54F VSB 5/8
LETHBRIDGE     MOCLDY    30  25  80 S13       29.61F WCI  20
CARDSTON         N/A     32  19  59 SW8         N/A  WCI  25
MILK RIVER       N/A     30  23  74 S8          N/A  WCI  23
ONEFOUR          N/A     30  21  69 W7          N/A  WCI  23
$$

REGIONAL REPORTS...SASKATCHEWAN

CITY           SKY/WX    TMP DP  RH WIND       PRES   REMARKS
SWIFT CURRENT  CLEAR     30  27  86 W9        29.61S WCI  22
REGINA         FOG       28  28 100 S6        29.65R VSB 3/8 WCI  22
SASKATOON      CLOUDY    34  32  93 W8        29.62R FOG     WCI  27
CYPRESS HILLS    N/A     28  19  69 W6          N/A  WCI  22
VAL MARIE        N/A     25  23  93 W2          N/A
ROCKGLEN         N/A     36  30  80 W18G25      N/A  WCI  25
ASSINIBOIA       N/A     34  32  93 W7          N/A  WCI  28
$$




USA.gov is the U.S. government's official web portal to all federal, state and local government web resources and services.